KINEIS-5D

Last updated on Wed Oct 22 2025 00:02:42 GMT+0000 (Coordinated Universal Time)

1 62082U 24219B 25294.61735233 .00001832 00000+0 29771-3 0 9990 2 62082 97.9838 93.5783 0002630 60.0173 300.1295 14.72286340 48657
UTC large
Height (km)
Speed (km/s)
/
Latitude / Longitude
Inclination (degrees)
Orbital Period (minutes)
Azimuth
Elevation
Range (km)
Doppler Factor

Next 0 passes for location: London (51.5072 / 0.1276)

Sorry there are no passes over London.